Hourly Weather Merlinovka

Today, 15 July, Wednesday

Time Temperature Precipitation Wind Pressure Humidity
00:00 +17°C° 0 mm 4 mps 734 mmHg 95%
01:00 +16°C° 0 mm 5 mps 734 mmHg 95%
02:00 +16°C° 0 mm 5 mps 735 mmHg 94%
03:00 +16°C° 0 mm 5 mps 735 mmHg 94%
04:00 +15°C° 0 mm 5 mps 735 mmHg 93%
05:00 +15°C° 0 mm 5 mps 735 mmHg 93%
06:00 +15°C° 0.1 mm 5 mps 735 mmHg 92%
07:00 +15°C° 0.1 mm 5 mps 735 mmHg 92%
08:00 +16°C° 0.1 mm 5 mps 735 mmHg 92%
09:00 +15°C° 0.4 mm 5 mps 735 mmHg 92%
10:00 +15°C° 0.4 mm 5 mps 735 mmHg 92%
11:00 +15°C° 0.4 mm 5 mps 736 mmHg 92%
12:00 +14°C° 0.2 mm 5 mps 736 mmHg 92%
13:00 +14°C° 0.2 mm 4 mps 736 mmHg 92%
14:00 +13°C° 0.2 mm 4 mps 736 mmHg 93%
15:00 +13°C° 0.1 mm 4 mps 736 mmHg 93%
16:00 +13°C° 0.1 mm 3 mps 737 mmHg 94%
17:00 +14°C° 0.1 mm 2 mps 737 mmHg 94%
18:00 +14°C° 0.1 mm 2 mps 737 mmHg 94%
19:00 +14°C° 0.1 mm 2 mps 737 mmHg 95%
20:00 +15°C° 0.1 mm 1 mps 738 mmHg 95%
21:00 +14°C° 0.1 mm 2 mps 738 mmHg 96%
22:00 +13°C° 0.1 mm 3 mps 738 mmHg 96%
23:00 +13°C° 0.1 mm 4 mps 738 mmHg 97%

Tomorrow, 16 July, Thursday

Time Temperature Precipitation Wind Pressure Humidity
00:00 +13°C° 0.2 mm 5 mps 738 mmHg 96%
01:00 +13°C° 0.2 mm 6 mps 739 mmHg 96%
02:00 +12°C° 0.2 mm 7 mps 739 mmHg 96%
03:00 +13°C° 0.1 mm 6 mps 739 mmHg 96%
04:00 +13°C° 0.1 mm 6 mps 740 mmHg 95%
05:00 +11°C° 0.1 mm 6 mps 740 mmHg 95%
06:00 +13°C° 0 mm 6 mps 740 mmHg 94%
07:00 +13°C° 0 mm 5 mps 741 mmHg 94%
08:00 +13°C° 0 mm 5 mps 741 mmHg 93%
09:00 +13°C° 0 mm 5 mps 741 mmHg 92%
10:00 +14°C° 0 mm 6 mps 742 mmHg 91%
11:00 +14°C° 0 mm 6 mps 742 mmHg 90%
12:00 +14°C° 0.1 mm 6 mps 742 mmHg 89%
13:00 +15°C° 0.1 mm 5 mps 743 mmHg 87%
14:00 +15°C° 0.1 mm 5 mps 743 mmHg 86%
15:00 +15°C° 0 mm 5 mps 743 mmHg 87%
16:00 +14°C° 0 mm 5 mps 743 mmHg 88%
17:00 +14°C° 0 mm 4 mps 743 mmHg 89%
18:00 +14°C° 0 mm 4 mps 743 mmHg 90%
19:00 +13°C° 0 mm 3 mps 744 mmHg 91%
20:00 +13°C° 0 mm 3 mps 744 mmHg 92%
21:00 +13°C° 0 mm 3 mps 744 mmHg 93%
22:00 +12°C° 0 mm 3 mps 744 mmHg 94%
23:00 +12°C° 0 mm 3 mps 744 mmHg 95%

Day after tomorrow, 17 July, Friday

Time Temperature Precipitation Wind Pressure Humidity
00:00 +12°C° 0 mm 3 mps 744 mmHg 95%
01:00 +12°C° 0 mm 3 mps 744 mmHg 95%
02:00 +12°C° 0 mm 3 mps 744 mmHg 94%
03:00 +12°C° 0 mm 3 mps 744 mmHg 94%
04:00 +13°C° 0 mm 3 mps 745 mmHg 93%
05:00 +13°C° 0 mm 3 mps 745 mmHg 92%
06:00 +13°C° 0 mm 3 mps 745 mmHg 90%
07:00 +14°C° 0 mm 3 mps 745 mmHg 89%
08:00 +16°C° 0 mm 3 mps 745 mmHg 87%
09:00 +17°C° 0.1 mm 4 mps 746 mmHg 83%
10:00 +18°C° 0.1 mm 4 mps 746 mmHg 78%
11:00 +20°C° 0.1 mm 4 mps 746 mmHg 74%
12:00 +20°C° 0.3 mm 4 mps 746 mmHg 74%
13:00 +20°C° 0.3 mm 4 mps 746 mmHg 74%
14:00 +20°C° 0.3 mm 4 mps 746 mmHg 74%
15:00 +20°C° 0.2 mm 3 mps 746 mmHg 77%
16:00 +19°C° 0.2 mm 3 mps 746 mmHg 80%
17:00 +19°C° 0.2 mm 2 mps 746 mmHg 82%
18:00 +18°C° 0 mm 2 mps 746 mmHg 84%
19:00 +17°C° 0 mm 2 mps 747 mmHg 86%
20:00 +16°C° 0 mm 2 mps 747 mmHg 88%
21:00 +16°C° 0 mm 2 mps 747 mmHg 89%
22:00 +15°C° 0 mm 2 mps 747 mmHg 91%
23:00 +14°C° 0 mm 2 mps 747 mmHg 93%

18 July, Saturday

Time Temperature Precipitation Wind Pressure Humidity
00:00 +14°C° 0 mm 2 mps 747 mmHg 94%
01:00 +13°C° 0 mm 2 mps 747 mmHg 95%
02:00 +13°C° 0 mm 2 mps 748 mmHg 95%
03:00 +13°C° 0 mm 2 mps 748 mmHg 95%
04:00 +13°C° 0 mm 2 mps 748 mmHg 95%
05:00 +13°C° 0 mm 2 mps 748 mmHg 95%
06:00 +15°C° 0 mm 2 mps 748 mmHg 91%
07:00 +16°C° 0 mm 2 mps 749 mmHg 86%
08:00 +18°C° 0 mm 2 mps 749 mmHg 81%
09:00 +19°C° 0.1 mm 2 mps 749 mmHg 77%
10:00 +19°C° 0.1 mm 2 mps 749 mmHg 74%
11:00 +20°C° 0.1 mm 2 mps 749 mmHg 70%
12:00 +20°C° 0.1 mm 2 mps 749 mmHg 71%
13:00 +20°C° 0.1 mm 2 mps 749 mmHg 72%
14:00 +20°C° 0.1 mm 2 mps 748 mmHg 72%
15:00 +21°C° 0.1 mm 2 mps 748 mmHg 72%
16:00 +21°C° 0.1 mm 2 mps 748 mmHg 73%
17:00 +21°C° 0.1 mm 2 mps 748 mmHg 73%
18:00 +20°C° 0.1 mm 2 mps 748 mmHg 78%
19:00 +18°C° 0.1 mm 2 mps 749 mmHg 84%
20:00 +17°C° 0.1 mm 2 mps 749 mmHg 89%
21:00 +16°C° 0 mm 2 mps 749 mmHg 90%
22:00 +15°C° 0 mm 2 mps 749 mmHg 92%
23:00 +15°C° 0 mm 2 mps 749 mmHg 93%

19 July, Sunday

Time Temperature Precipitation Wind Pressure Humidity
00:00 +14°C° 0 mm 2 mps 749 mmHg 93%
01:00 +14°C° 0 mm 2 mps 749 mmHg 93%
02:00 +13°C° 0 mm 2 mps 749 mmHg 94%
03:00 +14°C° 0 mm 2 mps 749 mmHg 93%
04:00 +14°C° 0 mm 2 mps 749 mmHg 93%
05:00 +14°C° 0 mm 2 mps 749 mmHg 92%
06:00 +15°C° 0 mm 2 mps 749 mmHg 88%
07:00 +17°C° 0 mm 3 mps 749 mmHg 84%
08:00 +19°C° 0 mm 3 mps 748 mmHg 80%
09:00 +20°C° 0.3 mm 3 mps 748 mmHg 76%
10:00 +21°C° 0.3 mm 3 mps 748 mmHg 72%
11:00 +22°C° 0.3 mm 3 mps 748 mmHg 67%
12:00 +22°C° 0.8 mm 3 mps 748 mmHg 68%
13:00 +22°C° 0.8 mm 3 mps 748 mmHg 68%
14:00 +22°C° 0.8 mm 3 mps 747 mmHg 68%
15:00 +22°C° 0.6 mm 3 mps 747 mmHg 71%
16:00 +22°C° 0.6 mm 3 mps 747 mmHg 74%
17:00 +21°C° 0.6 mm 3 mps 746 mmHg 77%
18:00 +20°C° 0.1 mm 2 mps 746 mmHg 80%
19:00 +18°C° 0.1 mm 2 mps 746 mmHg 84%
20:00 +17°C° 0.1 mm 2 mps 746 mmHg 88%
21:00 +16°C° 0 mm 2 mps 746 mmHg 88%
22:00 +14°C° 0 mm 3 mps 746 mmHg 89%
23:00 +14°C° 0 mm 3 mps 746 mmHg 90%

20 July, Monday

Time Temperature Precipitation Wind Pressure Humidity
00:00 +14°C° 0 mm 3 mps 745 mmHg 91%
01:00 +13°C° 0 mm 3 mps 745 mmHg 92%
02:00 +13°C° 0 mm 3 mps 745 mmHg 93%
03:00 +13°C° 0 mm 3 mps 745 mmHg 93%
04:00 +13°C° 0 mm 3 mps 745 mmHg 92%
05:00 +15°C° 0 mm 2 mps 745 mmHg 92%
06:00 +16°C° 0 mm 3 mps 744 mmHg 89%
07:00 +17°C° 0 mm 3 mps 744 mmHg 87%
08:00 +19°C° 0 mm 3 mps 744 mmHg 84%
09:00 +20°C° 0.1 mm 3 mps 744 mmHg 79%
10:00 +21°C° 0.1 mm 4 mps 743 mmHg 74%
11:00 +23°C° 0.1 mm 4 mps 743 mmHg 68%
12:00 +23°C° 0.1 mm 4 mps 743 mmHg 67%
13:00 +23°C° 0.1 mm 4 mps 742 mmHg 66%
14:00 +25°C° 0.1 mm 5 mps 742 mmHg 65%
15:00 +23°C° 0.3 mm 4 mps 742 mmHg 69%
16:00 +23°C° 0.3 mm 4 mps 741 mmHg 73%
17:00 +22°C° 0.3 mm 4 mps 741 mmHg 77%
18:00 +21°C° 0.2 mm 3 mps 741 mmHg 81%
19:00 +19°C° 0.2 mm 3 mps 741 mmHg 86%
20:00 +18°C° 0.2 mm 3 mps 741 mmHg 90%
21:00 +17°C° 0 mm 3 mps 740 mmHg 92%
22:00 +16°C° 0 mm 2 mps 740 mmHg 93%
23:00 +16°C° 0 mm 2 mps 740 mmHg 94%
Show more